Deer Park, WA

12:10 AM PST on February 24, 2017 (GMT -0800)
Deer Park

Weather History for KDEW - September, 2013

Change the Weather History Date:

Tuesday, September 17, 2013

  Actual Average Record
Temperature  
Mean Temperature 55 °F 56 °F  
Max Temperature 70 °F 73 °F 89 °F (2008)
Min Temperature 40 °F 39 °F 28 °F (2006)
Degree Days  
Heating Degree Days 10 9  
Month to date heating degree days 37 118  
Since 1 July heating degree days 80 262  
Cooling Degree Days 0 0  
Month to date cooling degree days 69 10  
Year to date cooling degree days 310 185  
Growing Degree Days 4 (Base 50)    
Moisture  
Dew Point 45 °F    
Average Humidity 70    
Maximum Humidity 100    
Minimum Humidity 40    
Precipitation  
Precipitation 0.06 in 0.03 in 0.28 in (2004)
Month to date precipitation 1.06 0.53  
Year to date precipitation 13.03 13.97  
Sea Level Pressure  
Sea Level Pressure 29.79 in    
Wind  
Wind Speed 5 mph (SW)    
Max Wind Speed 20 mph    
Max Gust Speed 24 mph    
Visibility 6 miles    
Events Fog , Rain    
T = Trace of Precipitation, MM = Missing Value Source: NWS Daily Summary

Daily Weather History Graph

Daily Weather History Graph

Search for Another Location

Airport or City:

Trip Planner

Search our weather history database for the weather conditions in past years. The results will help you decide how hot, cold, wet, or windy it might be!

Date:

Astronomy

Sep. 17, 2013 Rise Set
Actual Time 6:30 AM PDT 6:57 PM PDT
Civil Twilight 5:58 AM PDT 7:28 PM PDT
Nautical Twilight 5:21 AM PDT 8:04 PM PDT
Astronomical Twilight 4:43 AM PDT 8:43 PM PDT
Moon 5:50 PM PDT (9/17) 4:23 AM PDT (9/17)
Length of Visible Light 13h 29m
Length of Day
12h 27m
Waxing Gibbous, 96% of the Moon is Illuminated
Sep 17
Waxing Gibbous
Sep 19
Full
Sep 26
Last Quarter
Oct 4
New
Oct 11
First Quarter

Hourly Weather History & Observations

Time (PDT) Temp. Windchill Dew Point Humidity Pressure Visibility Wind Dir Wind Speed Gust Speed Precip Events Conditions
12:53 AM 46.9 °F - 46.0 °F 97% 29.85 in 9.0 mi NNW 3.5 mph - N/A   Clear
1:16 AM 46.4 °F - 46.4 °F 100% 29.85 in 1.8 mi Calm Calm - N/A   Clear
1:33 AM 48.2 °F - 48.2 °F 100% 29.85 in 3.0 mi ESE 3.5 mph - N/A   Partly Cloudy
1:53 AM 48.0 °F - 46.0 °F 93% 29.85 in 10.0 mi Calm Calm - N/A   Mostly Cloudy
2:53 AM 46.0 °F 44.8 °F 45.0 °F 96% 29.83 in 2.0 mi NNE 3.5 mph - N/A   Clear
3:10 AM 44.6 °F - 44.6 °F 100% 29.84 in 10.0 mi Calm Calm - N/A   Clear
3:36 AM 44.6 °F - 44.6 °F 100% 29.84 in 1.8 mi Calm Calm - N/A   Clear
3:45 AM 44.6 °F - 42.8 °F 93% 29.83 in 1.0 mi Calm Calm - N/A   Mist
3:49 AM 44.6 °F - 42.8 °F 93% 29.83 in 2.5 mi Calm Calm - N/A   Clear
3:53 AM 44.1 °F - 42.1 °F 93% 29.83 in 8.0 mi Calm Calm - N/A   Clear
4:53 AM 43.0 °F 41.3 °F 42.1 °F 97% 29.84 in 3.0 mi NNW 3.5 mph - N/A   Clear
5:00 AM 44.6 °F - 42.8 °F 93% 29.84 in 2.5 mi Calm Calm - N/A   Clear
5:08 AM 44.6 °F - 42.8 °F 93% 29.84 in 10.0 mi Calm Calm - N/A   Clear
5:23 AM 42.8 °F - 42.8 °F 100% 29.83 in 1.5 mi Calm Calm - N/A   Partly Cloudy
5:25 AM 41.0 °F 39.0 °F 41.0 °F 100% 29.83 in 0.8 mi North 3.5 mph - N/A   Mist
5:53 AM 41.0 °F - 39.9 °F 96% 29.83 in 0.8 mi Calm Calm - N/A   Mist
5:58 AM 39.2 °F - 39.2 °F 100% 29.83 in 1.2 mi Calm Calm - N/A   Partly Cloudy
6:03 AM 39.2 °F - 39.2 °F 100% 29.83 in 3.0 mi Calm Calm - N/A   Partly Cloudy
6:06 AM 39.2 °F - 39.2 °F 100% 29.83 in 1.8 mi Calm Calm - N/A   Partly Cloudy
6:16 AM 41.0 °F - 41.0 °F 100% 29.83 in 1.0 mi Calm Calm - N/A   Mist
6:20 AM 42.8 °F 41.1 °F 41.0 °F 93% 29.83 in 0.8 mi ENE 3.5 mph - N/A   Clear
6:27 AM 42.8 °F - 41.0 °F 93% 29.83 in 0.5 mi Calm Calm - N/A Fog Fog
6:40 AM 42.8 °F - 42.8 °F 100% 29.83 in 1.0 mi Calm Calm - N/A   Mist
6:53 AM 44.1 °F - 43.0 °F 96% 29.83 in 0.8 mi Calm Calm - N/A   Mist
6:56 AM 42.8 °F - 42.8 °F 100% 29.83 in 2.0 mi Calm Calm - N/A   Mostly Cloudy
7:04 AM 42.8 °F - 42.8 °F 100% 29.83 in 1.8 mi Calm Calm - N/A   Scattered Clouds
7:10 AM 42.8 °F - 42.8 °F 100% 29.83 in 3.0 mi Calm Calm - N/A   Scattered Clouds
7:53 AM 51.1 °F - 48.9 °F 92% 29.83 in 10.0 mi Calm Calm - N/A   Clear
8:53 AM 57.9 °F - 51.1 °F 78% 29.82 in 10.0 mi Calm Calm - N/A   Clear
9:53 AM 61.0 °F - 50.0 °F 67% 29.81 in 10.0 mi Calm Calm - N/A   Clear
10:53 AM 64.9 °F - 48.9 °F 56% 29.76 in 10.0 mi Calm Calm - N/A   Clear
11:53 AM 66.0 °F - 48.9 °F 54% 29.74 in 10.0 mi South 3.5 mph - N/A   Clear
12:53 PM 68.0 °F - 48.9 °F 50% 29.72 in 10.0 mi SW 4.6 mph - N/A   Clear
1:53 PM 69.1 °F - 46.0 °F 44% 29.69 in 10.0 mi Calm Calm - N/A   Clear
2:53 PM 69.1 °F - 46.0 °F 44% 29.67 in 10.0 mi WSW 3.5 mph - N/A   Clear
3:53 PM 69.1 °F - 45.0 °F 42% 29.67 in 10.0 mi SW 9.2 mph - N/A   Clear
4:53 PM 66.0 °F - 46.9 °F 50% 29.68 in 10.0 mi WSW 13.8 mph - N/A   Clear
5:53 PM 63.0 °F - 48.9 °F 60% 29.70 in 10.0 mi SSW 16.1 mph 24.2 mph N/A   Partly Cloudy
6:53 PM 61.0 °F - 48.9 °F 64% 29.70 in 10.0 mi SSW 6.9 mph - N/A   Overcast
7:53 PM 57.9 °F - 51.1 °F 78% 29.72 in 10.0 mi South 9.2 mph - N/A   Overcast
8:53 PM 57.9 °F - 52.0 °F 81% 29.73 in 10.0 mi South 13.8 mph - N/A   Overcast
9:06 PM 57.2 °F - 51.8 °F 82% 29.74 in 10.0 mi SSW 9.2 mph - N/A   Overcast
9:53 PM 55.9 °F - 52.0 °F 87% 29.73 in 10.0 mi SW 10.4 mph - 0.02 in Rain Light Rain
10:53 PM 54.0 °F - 48.9 °F 83% 29.74 in 10.0 mi West 5.8 mph - 0.02 in   Overcast
11:53 PM 53.1 °F - 51.1 °F 93% 29.75 in 10.0 mi SSW 9.2 mph - 0.02 in Rain Light Rain